Theta_e
302 302 303 304 304 303 302 302 302 302 304 304 303 302 303 304 297 296 306 310 308 309 314 318 321 323 325 327 329 330 331 332 333 334 335 335 335 336 336 338 340 340 341 341 341 343 343 345 345 345 343 340 343 345 346 347 347 348 349 347 346 345 345 349 351 353 354 357 358 358 356 353 351 349 346 344 343 342 341 340 340 337 336 334 333 332 332
302 303 303 305 303 303 303 303 303 303 304 303 304 304 306 308 307 308 307 307 309 311 313 319 322 327 328 331 333 332 331 332 333 333 334 334 335 335 335 336 337 338 340 340 341 343 342 342 343 345 342 342 343 344 345 347 346 349 349 347 346 345 345 349 353 356 361 361 358 356 354 351 349 346 344 343 342 341 340 339 338 336 334 333 331 330 330
299 303 306 304 304 301 300 302 303 304 304 303 304 307 311 312 308 310 310 309 310 314 316 320 326 330 333 333 332 331 331 333 333 332 332 333 333 334 335 336 336 338 339 340 340 339 341 341 341 344 343 346 345 344 346 346 346 349 349 347 346 345 345 350 354 360 362 359 357 354 353 350 347 345 344 343 342 340 339 337 336 336 333 331 330 329 329
296 301 303 303 304 303 300 300 302 304 303 301 306 308 311 308 306 309 310 308 310 314 320 325 328 329 330 329 330 331 331 333 333 331 331 332 332 333 334 336 337 337 338 339 339 338 339 343 344 343 343 348 348 344 347 347 347 351 349 348 346 346 347 353 356 361 362 359 356 354 352 349 347 345 343 341 340 339 338 336 336 334 331 329 329 329 329
295 301 303 303 301 298 297 300 303 306 305 307 312 314 315 313 313 310 307 307 312 317 322 322 325 328 328 328 329 330 331 332 332 332 332 333 334 334 334 335 337 338 338 338 338 339 340 341 346 346 343 348 349 346 348 349 350 352 350 349 348 348 352 356 358 362 362 358 355 353 351 349 346 343 341 340 339 338 337 337 334 331 329 328 328 328 327
296 301 302 301 295 291 294 305 308 310 311 312 311 311 313 314 313 309 311 313 316 316 317 318 319 323 326 328 330 333 333 332 332 332 334 334 335 335 336 337 338 339 340 341 341 341 341 341 344 349 347 348 351 348 351 351 351 352 351 351 351 351 355 358 359 362 361 358 355 353 351 348 344 342 341 340 339 339 338 336 331 329 328 328 327 327 327
295 299 299 296 291 294 304 309 313 314 314 314 312 312 314 315 317 318 317 317 318 319 319 320 322 322 323 329 330 331 333 334 333 332 333 334 335 335 336 336 337 339 341 341 342 342 341 341 342 347 349 350 353 349 352 353 353 354 353 353 354 354 356 359 360 362 361 358 355 352 350 346 343 342 341 339 339 339 337 333 329 327 327 326 327 329 327
298 295 294 290 290 303 310 313 315 319 312 312 314 311 312 313 317 319 317 319 321 322 324 325 324 324 325 326 328 327 330 334 333 332 332 334 335 335 337 337 338 338 339 339 340 340 342 342 343 350 349 352 353 350 353 355 355 355 355 355 355 356 357 359 360 362 360 357 354 351 348 345 343 341 340 340 339 339 336 332 330 329 328 328 328 326 325
296 296 295 295 303 303 306 309 312 313 308 307 310 305 308 313 317 319 318 319 321 324 325 327 329 326 327 325 328 337 337 330 330 333 333 335 335 337 337 338 339 340 340 339 339 341 341 342 347 351 351 353 354 352 353 355 356 356 356 356 356 357 358 359 360 362 360 357 354 351 348 345 343 341 340 340 339 339 334 332 330 328 328 328 327 325 325
299 297 292 293 293 293 299 310 315 319 319 313 316 314 307 315 316 323 321 320 322 324 326 328 329 324 322 319 323 334 341 340 326 328 329 333 335 337 338 338 338 338 339 339 340 341 341 341 347 353 353 354 354 353 353 354 355 356 356 357 358 358 358 359 361 363 360 357 353 351 348 345 344 342 341 341 340 339 334 331 329 328 327 326 325 326 325
299 297 294 292 293 296 307 312 315 318 320 315 317 311 304 313 316 322 324 325 327 328 328 328 327 320 315 317 323 333 339 343 346 346 349 347 336 335 336 337 337 338 339 339 340 340 339 339 344 353 353 354 354 354 354 354 355 355 356 357 358 357 358 359 363 363 360 357 354 351 349 347 345 342 341 340 340 338 334 332 330 329 329 325 325 326 325
299 296 295 292 299 302 310 314 316 318 320 317 309 297 298 312 318 322 327 326 327 328 329 328 327 323 318 321 326 336 339 342 344 345 347 350 354 345 333 334 336 338 340 340 339 337 338 339 344 353 354 354 355 355 356 356 355 354 356 357 360 359 360 360 364 363 360 357 355 352 350 347 345 343 342 340 338 335 333 332 330 328 327 326 325 325 327
302 302 295 297 304 312 315 315 318 319 319 312 300 295 304 315 319 324 329 329 329 327 326 325 321 326 327 329 333 337 338 341 341 344 347 348 353 356 359 357 347 337 337 337 337 338 338 340 343 350 355 353 354 356 357 356 355 356 358 360 360 360 360 360 363 362 360 358 355 353 351 348 344 343 341 339 337 334 332 331 329 328 327 326 325 326 328
298 299 295 296 302 309 314 318 319 319 313 301 302 310 315 319 321 325 329 330 330 329 328 327 326 330 336 338 337 336 337 338 338 342 345 348 351 356 363 366 362 346 340 338 339 339 341 342 345 349 353 353 353 355 357 357 357 359 359 360 360 359 360 360 363 362 360 358 356 353 350 346 343 341 340 339 336 334 332 330 329 327 327 327 326 326 326
303 301 298 295 291 307 317 317 316 319 307 308 314 318 320 322 324 328 329 329 329 331 329 332 333 334 332 334 334 335 336 336 338 341 343 344 347 350 353 354 360 356 345 342 340 340 341 342 345 347 351 353 354 356 356 357 360 360 360 361 360 360 360 361 363 361 359 356 354 352 348 345 342 340 339 337 336 334 331 330 328 327 326 326 326 324 324
298 298 297 298 304 310 320 316 309 316 317 319 321 320 317 320 325 328 328 329 330 330 329 329 329 331 330 331 332 333 336 339 340 340 340 342 344 349 352 354 355 356 353 352 350 351 353 343 343 345 348 350 353 355 356 359 360 360 360 361 361 360 360 362 362 361 358 356 354 351 347 344 341 339 337 336 335 333 332 330 328 326 326 327 325 324 324
304 302 305 313 316 317 318 319 319 320 322 323 323 323 321 322 324 330 329 331 333 331 330 329 329 329 330 330 333 332 334 337 338 338 339 341 344 348 350 351 354 352 349 347 349 351 352 353 345 344 346 347 349 352 356 359 358 359 359 360 360 360 361 362 361 360 357 355 352 349 346 343 340 338 336 336 333 333 332 329 328 326 326 327 325 324 324
313 314 316 320 315 316 317 320 322 321 323 326 328 326 324 325 327 329 330 332 332 331 330 330 329 330 331 330 331 332 333 334 337 340 340 341 345 348 349 349 351 350 349 348 349 350 351 353 350 349 348 348 347 350 356 359 359 360 359 359 359 360 361 361 360 358 355 353 350 347 344 343 340 339 337 335 333 332 331 329 328 327 327 327 326 325 324
304 300 312 316 317 316 316 317 321 324 325 326 329 328 328 328 330 332 334 333 333 332 331 329 327 328 330 329 331 333 333 333 334 336 339 341 345 346 346 349 350 348 347 347 347 347 349 351 351 351 349 351 352 349 351 354 357 360 360 359 358 360 360 360 358 356 354 351 348 345 343 342 340 338 337 335 334 332 330 329 328 328 328 328 326 325 324
305 306 312 316 318 317 317 315 314 317 323 326 328 329 330 331 333 335 334 334 334 335 334 333 332 332 332 331 329 332 334 335 336 336 338 338 341 344 346 348 348 346 346 344 344 344 347 349 349 350 353 351 351 350 350 352 353 353 352 356 359 359 359 358 356 355 352 348 345 344 342 340 338 337 336 335 333 331 330 329 328 328 328 328 327 326 324
309 313 315 316 317 315 315 315 314 316 322 325 325 327 328 329 330 333 335 336 335 334 335 335 334 333 332 334 331 331 331 333 335 336 338 337 338 341 343 345 348 346 345 345 344 344 345 348 349 348 348 351 352 349 351 356 354 352 350 352 357 358 358 357 354 352 350 346 345 343 341 339 338 336 336 334 332 332 332 332 331 330 329 329 329 328 325
304 305 308 314 308 307 310 312 313 314 321 326 325 326 326 325 326 329 333 333 336 336 335 337 336 333 333 332 330 331 331 332 334 335 339 338 339 341 345 345 346 345 346 344 343 343 344 346 347 348 347 348 352 351 351 357 355 353 354 357 357 356 355 354 352 349 347 345 344 342 340 335 328 324 323 323 328 332 331 334 329 323 324 329 330 328 325
301 310 313 315 314 313 314 314 313 314 317 323 324 324 323 323 322 326 332 332 332 335 336 338 338 336 334 334 334 332 333 332 332 335 338 339 340 342 346 345 343 343 342 344 342 342 344 345 345 346 346 348 349 351 356 362 362 359 358 355 354 354 352 351 348 347 345 343 342 339 334 329 328 327 324 318 303 303 317 330 317 312 314 317 321 325 327
311 313 311 312 310 308 312 313 313 313 315 317 323 325 325 323 322 322 324 331 333 332 335 337 340 341 339 336 335 334 335 335 334 336 337 339 340 344 346 345 343 342 341 341 340 341 341 343 344 343 344 346 348 350 350 353 357 358 356 354 352 350 351 348 346 344 344 341 337 332 329 328 328 328 328 323 317 307 302 309 313 309 310 310 312 315 317
308 312 314 314 312 313 314 314 314 314 319 319 317 317 320 322 325 324 321 322 332 335 334 336 337 341 340 341 339 337 338 338 339 337 343 347 347 346 345 345 342 342 340 340 340 340 340 341 343 342 342 343 346 350 348 348 349 348 347 349 350 347 344 343 342 341 338 336 333 331 329 328 329 331 329 324 322 318 315 304 302 306 309 308 310 310 309
315 315 316 315 314 313 313 311 311 313 315 315 315 315 318 328 327 320 317 322 328 335 335 335 336 339 340 339 341 340 339 340 348 348 341 340 343 345 343 344 344 343 340 340 341 340 340 339 339 340 340 342 342 345 348 347 344 344 342 343 345 344 341 339 338 337 335 334 333 331 330 331 332 330 327 326 324 321 320 319 319 312 306 308 308 305 306
314 314 313 310 310 311 314 311 309 314 315 315 314 314 315 315 323 319 319 322 329 332 335 336 337 338 338 339 346 345 343 345 344 338 337 340 341 343 344 345 344 344 343 341 340 342 345 341 339 338 339 341 341 342 344 347 346 344 341 341 342 343 341 340 338 336 335 334 333 331 330 330 329 327 324 324 323 322 322 322 322 322 322 317 308 306 314
314 314 314 310 308 311 313 316 318 318 318 317 315 315 316 318 319 319 319 320 321 323 327 329 331 332 332 337 338 337 339 340 340 339 338 338 339 343 344 343 344 343 342 342 340 340 342 342 344 342 341 341 340 340 342 344 345 344 343 343 342 340 339 338 336 334 333 333 332 331 330 328 327 325 323 322 322 322 323 323 323 322 318 313 312 312 308
315 316 317 317 316 317 319 319 319 319 318 319 321 320 320 319 319 320 320 321 321 322 322 323 326 329 331 334 335 335 335 335 337 338 338 338 341 344 344 343 343 344 342 341 341 340 340 342 343 343 342 341 340 340 341 341 341 341 340 339 337 336 336 335 334 333 332 332 331 330 329 326 325 323 322 322 323 323 322 322 321 320 317 311 310 311 313
316 317 317 317 319 319 317 317 317 318 319 319 320 320 320 319 318 318 320 320 321 321 321 322 324 325 328 329 330 329 333 334 336 340 341 340 340 340 343 343 343 341 340 340 339 339 339 339 341 341 342 344 343 342 342 340 340 340 340 338 337 335 334 334 333 332 331 330 329 329 327 325 324 323 322 322 322 322 322 321 321 319 314 312 316 313 312
316 318 317 317 317 318 317 317 317 318 319 319 319 320 320 319 318 318 319 320 321 321 321 323 324 324 325 326 328 328 330 332 335 337 340 339 338 339 341 339 340 339 340 340 340 340 340 340 342 343 343 344 344 344 344 341 339 339 338 338 337 334 332 331 332 331 331 330 329 328 327 325 323 323 323 323 322 321 321 321 321 319 316 312 313 313 314
315 316 316 315 316 316 316 315 316 317 318 320 319 319 319 318 318 319 320 320 320 322 321 322 323 323 325 326 328 329 329 329 330 332 336 339 341 339 340 341 341 346 342 342 342 341 341 341 341 343 343 343 342 342 344 341 338 337 336 338 336 334 331 330 331 330 330 330 329 328 327 325 323 323 323 322 321 321 321 320 319 317 314 313 313 313 312
311 310 311 311 314 313 314 315 315 316 319 319 319 319 320 321 321 321 320 322 322 322 321 322 323 324 325 326 326 327 328 330 329 329 330 333 336 340 342 343 342 341 342 343 343 343 342 341 342 341 342 342 341 341 343 341 338 336 336 336 335 334 334 331 331 330 330 329 329 328 327 326 324 323 323 323 322 322 321 320 319 317 315 313 313 313 313
311 310 312 314 313 312 312 313 315 316 316 318 319 318 319 320 320 319 320 322 322 322 322 323 325 326 326 326 325 326 328 328 328 329 330 329 331 335 339 342 341 340 339 340 343 342 343 343 341 341 340 340 341 342 342 340 338 337 336 336 334 332 332 331 330 330 329 328 329 329 328 328 325 324 323 323 323 322 321 320 319 318 316 314 314 314 311
316 316 316 317 317 318 319 315 316 316 317 315 317 318 318 318 318 318 324 323 321 321 323 324 324 325 326 326 325 326 326 326 327 329 331 332 330 333 333 332 332 333 332 331 332 334 336 341 343 343 342 341 341 341 342 341 338 337 337 336 334 333 333 332 330 330 329 328 328 328 327 327 326 327 325 323 323 323 322 321 320 319 317 315 315 315 313
316 315 315 316 317 319 317 318 319 319 318 317 317 318 318 319 319 319 319 321 323 324 324 324 324 325 324 324 325 326 326 327 328 329 330 331 330 328 328 328 328 328 328 330 332 334 336 337 346 346 342 341 340 340 341 341 339 338 337 336 334 333 333 332 331 330 330 329 328 328 327 328 328 327 325 324 323 323 322 321 320 320 318 316 315 315 314
317 315 315 316 317 317 317 317 318 318 317 317 318 318 319 319 319 320 323 322 323 323 323 324 323 322 322 324 326 327 328 328 329 329 330 331 328 328 328 328 328 327 328 327 330 334 336 336 343 346 344 341 341 340 341 346 340 338 336 335 334 333 331 331 331 330 329 329 328 328 328 328 326 325 325 323 323 322 322 321 321 320 319 317 316 315 315
317 317 317 316 317 317 317 319 321 319 318 318 318 319 320 320 320 321 321 322 322 322 323 322 322 322 324 326 326 326 327 328 328 329 330 331 329 328 327 326 327 328 328 329 333 334 334 338 343 345 342 340 340 340 342 348 346 337 334 334 333 332 331 330 330 330 329 328 328 328 327 326 325 324 324 323 322 322 322 321 321 320 319 318 317 316 315
315 316 316 317 317 316 317 318 319 318 320 317 317 317 320 322 322 321 320 321 322 323 322 322 322 322 323 323 323 325 326 327 328 329 329 331 330 327 328 329 329 330 331 333 334 334 336 340 340 336 334 334 336 337 342 348 348 336 333 333 333 331 330 330 330 329 329 328 328 327 326 325 325 324 323 322 321 322 322 321 321 320 319 319 318 316 316
314 314 315 316 315 315 315 315 316 316 317 319 318 317 318 320 319 320 320 320 320 322 322 322 321 321 321 321 321 322 324 326 327 328 329 330 329 328 328 329 330 332 334 340 338 337 338 337 334 331 333 334 336 335 339 343 347 337 335 333 333 331 330 329 329 328 328 328 327 328 326 325 324 324 324 323 321 321 321 322 322 320 319 319 318 317 317
313 313 314 313 314 314 314 314 314 315 316 317 317 318 319 319 319 319 319 319 320 321 321 320 320 320 320 320 320 322 324 327 328 328 329 328 327 327 327 327 331 332 333 335 335 339 337 336 334 333 333 334 334 338 337 343 343 336 335 334 333 331 330 329 329 328 328 327 326 326 326 325 324 324 323 322 321 321 321 321 321 321 320 319 318 318 317
312 314 313 313 313 313 314 314 315 314 315 315 318 319 319 319 319 319 319 319 319 319 318 319 324 322 322 323 323 324 324 324 325 326 328 328 328 328 327 329 333 333 341 344 343 340 336 335 336 337 334 334 334 339 341 340 338 336 335 334 333 332 331 330 329 328 328 328 327 327 326 326 325 324 323 322 321 321 321 321 320 321 319 319 319 319 318
313 312 312 312 313 313 313 314 314 314 315 316 316 317 318 318 318 318 318 318 318 318 318 318 321 324 323 321 321 320 321 323 324 325 326 328 330 331 330 331 334 332 342 339 335 334 335 335 335 335 338 336 336 339 341 338 335 334 334 334 333 332 331 330 329 329 328 327 326 326 326 325 325 324 323 322 321 321 321 321 320 320 319 318 318 319 318
314 313 312 312 313 314 314 314 314 314 313 314 315 315 315 315 316 316 317 317 318 319 319 319 319 319 321 321 320 320 320 322 323 324 325 325 327 330 333 333 334 337 341 336 334 333 334 334 334 337 341 340 340 340 339 338 336 333 333 334 333 332 331 330 329 329 328 327 327 326 325 325 325 324 324 323 322 321 321 321 321 320 319 317 318 318 318
312 312 312 313 313 313 312 312 312 313 314 315 314 314 315 314 315 316 316 316 317 318 320 320 320 320 320 320 319 319 320 322 324 325 323 323 323 324 329 338 337 338 338 341 336 334 334 335 336 340 340 337 336 340 338 337 336 335 335 335 334 333 331 330 330 329 329 328 327 327 326 325 325 325 324 323 324 322 321 321 321 320 319 316 317 318 318
313 313 313 318 314 312 312 313 314 314 314 313 313 314 316 315 315 316 316 316 317 317 318 318 317 318 318 318 319 320 321 323 324 325 326 326 324 325 329 335 333 339 339 342 337 335 335 340 338 336 336 335 335 338 338 336 336 336 335 336 335 333 332 332 331 330 330 329 328 327 327 326 326 325 325 323 323 322 322 322 321 319 318 317 316 317 319
312 313 312 312 312 313 313 314 314 314 314 312 311 311 313 314 315 315 315 316 316 316 317 317 318 318 319 320 320 320 320 320 321 323 324 326 329 332 334 337 338 340 340 338 337 336 335 336 337 333 333 333 337 337 337 336 336 336 336 336 336 335 333 332 331 331 330 330 328 328 330 327 327 327 325 325 323 322 321 322 321 320 319 319 317 318 320
311 312 312 312 312 312 313 313 312 311 310 311 311 312 314 314 314 314 315 315 316 317 318 318 319 320 321 322 323 323 323 321 319 321 324 325 326 328 329 330 332 338 338 342 342 344 344 340 336 331 330 331 337 335 335 336 337 337 337 336 336 337 336 334 333 331 331 330 329 328 328 328 327 327 326 324 323 323 322 322 322 322 321 320 318 317 316
311 311 312 313 313 313 312 312 312 313 312 312 313 312 314 314 314 315 316 316 317 317 317 318 319 319 321 323 324 324 325 327 324 322 325 326 327 327 329 334 338 338 337 337 337 337 340 337 334 330 329 334 334 334 335 337 337 337 336 336 336 337 337 337 334 332 331 330 329 328 328 328 327 327 326 325 324 324 323 323 323 323 322 320 319 318 317
311 311 311 312 311 311 311 310 310 310 311 313 312 312 313 313 313 314 316 316 316 319 318 317 318 319 320 320 321 322 323 324 325 326 327 328 328 329 330 330 331 336 339 336 336 336 339 338 336 336 334 333 333 334 335 337 337 337 336 336 336 336 336 334 330 328 329 329 329 328 328 327 327 327 326 325 324 324 324 324 324 325 325 323 320 319 318
309 311 311 313 313 314 313 312 312 313 312 312 313 314 316 315 315 318 317 317 317 317 316 316 317 318 318 319 319 320 322 323 325 329 328 328 328 331 333 332 331 334 333 335 336 336 335 335 334 337 337 335 334 336 336 337 337 336 336 334 334 333 332 329 330 330 328 328 328 328 328 327 327 326 326 325 324 324 324 323 323 323 323 321 320 319 318
313 312 312 313 313 313 313 313 314 314 314 315 315 315 316 316 316 316 316 322 318 316 316 315 315 316 317 318 320 320 321 323 325 325 329 329 329 329 330 334 332 332 333 333 334 332 329 330 330 330 332 331 332 334 338 340 337 336 334 332 334 332 332 330 329 329 329 329 328 327 328 327 326 326 325 324 323 323 322 322 322 322 321 321 320 319 318
Wind_Speed
5 7 8 9 7 6 6 7 8 7 10 4 4 5 7 8 7 6 2 5 7 5 5 7 8 8 8 9 6 4 5 6 6 8 10 11 10 9 10 8 6 6 7 7 6 3 6 6 3 0 3 6 7 10 12 11 10 12 11 11 11 10 8 8 7 6 5 5 7 8 9 9 9 9 9 9 8 8 7 7 7 7 7 8 8 8 7
6 8 8 8 8 7 8 9 10 9 8 5 3 5 7 10 11 10 10 6 3 1 3 8 6 3 5 4 5 6 8 8 8 8 9 11 10 11 11 10 8 4 3 3 2 1 2 3 4 2 4 5 8 10 12 12 12 11 10 11 11 10 8 8 7 7 7 8 9 9 10 10 10 9 9 9 9 8 7 7 7 7 7 7 7 8 8
4 6 6 7 8 6 6 8 9 9 8 6 5 7 11 13 9 8 12 10 5 2 2 3 4 5 6 6 5 5 7 8 8 8 8 9 10 9 10 10 10 9 2 3 3 4 5 5 5 3 2 6 6 9 11 12 12 11 11 11 11 10 9 7 8 9 8 9 9 9 9 9 9 10 9 8 8 8 8 8 8 7 8 8 7 6 7
6 5 5 8 8 8 5 6 7 12 9 6 4 9 1 9 7 10 11 7 2 1 3 5 5 5 6 6 5 5 6 8 8 8 8 9 9 9 11 9 8 7 7 3 4 8 8 7 5 4 3 3 6 8 10 11 11 10 10 11 11 10 8 7 7 11 9 9 10 10 9 10 9 8 9 9 9 8 9 8 7 7 8 8 7 7 6
2 7 4 6 5 5 8 11 13 10 7 10 9 9 9 9 11 11 8 5 3 1 3 5 2 4 3 3 3 4 3 5 8 8 9 8 7 9 9 9 10 11 10 10 8 12 8 7 6 5 4 5 7 8 9 11 10 10 11 11 10 9 8 9 8 10 11 11 10 10 10 10 9 9 9 9 9 9 9 8 8 8 8 8 8 7 7
3 6 5 3 4 5 3 7 10 9 10 14 14 10 12 9 8 4 3 3 2 4 4 4 5 5 5 7 6 5 10 10 7 6 8 7 7 7 8 10 11 11 6 8 12 13 10 8 7 6 4 6 8 10 10 10 12 12 12 10 10 10 9 10 9 10 11 12 11 11 10 10 10 10 10 10 8 7 8 7 8 8 8 8 8 7 6
2 3 6 7 2 1 5 2 8 11 10 17 14 12 9 8 10 11 10 6 5 2 3 4 1 1 3 3 5 3 3 6 9 10 7 7 8 9 9 9 9 10 10 8 9 9 9 9 8 6 5 5 5 8 9 10 11 11 11 11 10 9 10 10 10 10 11 11 11 10 10 10 10 10 9 9 9 8 8 9 9 9 9 9 7 7 6
1 3 2 2 1 3 5 5 6 4 1 5 17 14 13 8 4 10 7 4 5 6 7 5 5 8 10 10 10 7 2 1 8 8 7 9 9 11 11 12 11 12 14 16 17 16 12 7 8 5 5 5 6 9 9 12 11 11 11 11 11 10 10 10 11 11 11 11 11 11 11 10 10 10 9 11 10 8 8 7 6 7 6 7 8 7 6
1 2 1 4 4 4 9 6 10 6 2 4 12 7 5 7 4 7 5 5 4 5 4 5 6 7 11 10 7 8 4 0 3 4 9 11 11 10 9 11 14 14 13 10 11 8 7 9 7 5 4 5 7 8 9 10 12 11 11 11 11 11 11 11 11 11 12 12 12 12 12 12 11 11 11 10 9 8 9 8 9 8 8 7 7 8 7
1 1 3 5 5 2 6 3 10 5 4 5 4 14 3 4 8 1 7 5 4 5 5 6 3 6 10 7 5 6 7 3 8 4 3 4 6 9 10 7 5 4 7 11 13 12 13 9 5 4 5 6 7 8 10 9 10 10 11 11 11 11 11 11 11 11 12 12 13 12 12 13 12 10 9 8 9 9 11 10 9 8 7 8 7 7 7
2 1 0 1 1 2 3 9 8 11 9 4 1 11 5 6 4 6 4 6 5 5 7 6 4 6 4 1 2 5 6 5 6 3 2 2 7 10 10 14 14 12 10 11 10 8 7 10 7 6 6 8 8 9 9 10 11 11 11 11 10 10 10 11 11 11 12 12 12 13 13 12 11 12 11 10 8 8 8 8 8 8 7 8 7 6 6
3 2 1 3 1 0 5 8 7 9 9 1 6 6 3 6 7 3 3 7 7 5 5 7 9 7 4 0 1 3 5 4 2 4 4 7 9 2 7 7 6 8 10 8 7 8 10 11 6 6 8 8 8 9 10 10 11 12 12 11 10 10 10 10 10 11 11 12 12 12 12 10 9 9 8 9 9 9 8 7 8 8 8 8 8 7 6
4 7 3 1 1 3 4 6 9 10 3 7 9 4 2 3 4 3 4 5 4 4 5 4 5 0 1 2 1 2 4 0 4 4 3 4 5 9 8 2 5 4 4 8 9 7 8 7 5 5 6 8 8 8 9 10 13 12 11 9 9 9 9 10 10 11 11 12 13 11 10 10 9 8 8 9 9 9 9 8 8 8 9 8 7 7 6
1 1 1 1 2 3 3 6 6 6 7 5 2 3 3 2 1 2 4 6 3 5 5 4 3 4 2 1 1 1 0 2 1 2 3 5 6 6 6 8 5 3 6 8 10 14 14 11 10 9 9 10 10 9 10 12 11 7 6 7 8 9 10 10 11 11 11 10 10 9 8 10 10 9 8 9 9 9 8 9 10 10 8 8 7 7 6
2 4 4 3 1 3 7 6 6 10 8 2 4 2 6 3 4 5 6 5 3 4 4 3 3 4 2 0 0 0 1 2 2 3 3 5 6 6 7 9 8 3 4 5 8 12 11 10 9 10 12 12 12 11 13 12 7 8 8 9 10 10 10 10 10 11 11 12 10 8 9 10 11 11 10 10 9 10 11 10 10 10 9 8 8 8 7
2 1 2 1 2 4 6 4 6 2 3 2 1 3 5 4 3 3 4 4 2 3 5 3 2 2 2 2 2 2 3 2 3 3 2 2 4 5 5 5 5 6 5 2 1 2 3 5 8 8 11 12 12 13 15 9 9 8 9 10 11 11 11 11 11 11 11 11 10 9 10 10 11 12 11 10 10 10 10 10 10 9 8 9 8 9 9
2 1 1 1 2 2 4 6 5 4 4 5 5 6 4 4 3 1 4 3 5 5 4 4 2 2 2 1 0 1 2 3 4 4 4 3 3 4 6 4 4 6 5 2 2 2 2 4 8 10 9 10 11 13 9 10 12 12 11 11 12 11 11 10 11 10 10 10 10 10 11 12 12 11 12 12 11 9 10 9 10 10 9 9 10 10 9
2 5 3 0 7 7 7 7 5 5 7 8 10 9 7 6 4 3 4 4 4 4 3 5 2 0 1 1 2 1 1 1 2 3 4 3 2 0 3 4 4 5 6 6 5 5 4 4 4 9 10 10 13 11 6 11 13 12 11 11 10 10 9 9 10 10 10 9 9 10 11 10 11 11 13 12 11 10 9 9 10 11 11 11 9 7 7
4 1 5 11 5 5 8 8 8 8 8 7 8 9 8 6 6 6 5 5 4 4 4 4 2 0 2 2 0 0 1 2 2 3 4 3 1 1 3 4 5 7 6 6 5 3 5 5 4 3 7 9 6 7 7 5 3 5 12 13 11 9 10 9 10 10 11 10 9 9 10 9 9 10 10 10 11 11 10 11 11 10 9 7 7 6 6
6 4 3 3 5 4 4 6 7 6 7 9 8 7 6 7 6 7 5 3 3 2 3 2 2 0 1 0 1 1 2 3 3 4 4 4 5 6 4 4 6 7 7 6 4 3 3 5 4 3 1 3 5 4 5 9 8 1 4 7 11 11 12 10 10 10 10 12 12 9 10 11 11 10 9 11 12 13 14 13 12 10 8 9 10 12 12
4 2 1 1 4 10 9 9 8 5 5 8 8 8 9 9 9 7 6 5 4 2 1 1 0 1 2 0 1 3 3 5 4 3 3 2 2 7 8 2 5 8 7 7 5 4 5 5 5 4 2 1 4 7 3 3 7 8 10 10 7 8 9 9 9 9 10 11 10 9 9 8 6 6 10 11 10 8 9 10 10 12 12 11 11 8 7
1 2 2 2 0 1 7 7 6 5 3 6 7 7 8 8 7 5 5 6 6 4 2 0 0 2 4 3 1 2 4 5 6 8 5 3 4 7 8 1 7 10 9 7 5 5 6 6 5 5 3 3 4 12 13 10 13 14 13 11 9 9 9 9 9 9 8 9 9 9 9 8 7 5 10 8 3 7 9 8 6 5 4 5 7 9 8
3 5 3 3 8 5 2 1 5 8 4 5 9 6 5 5 5 4 5 5 6 6 5 3 3 1 2 3 1 2 4 6 6 7 9 8 6 6 3 5 10 10 8 7 5 4 5 6 7 5 3 3 2 2 5 7 11 11 10 9 9 9 10 9 10 9 9 8 8 8 7 8 7 8 6 8 12 12 6 5 8 10 10 9 8 7 7
2 0 1 1 2 4 2 3 5 5 5 6 6 4 4 4 4 5 5 3 2 3 4 5 3 1 2 3 2 4 4 5 5 7 6 8 9 9 9 9 8 7 5 4 4 3 4 5 6 5 3 3 2 1 3 6 7 9 11 10 9 9 8 8 11 11 9 10 10 9 8 7 8 9 9 10 5 9 11 7 6 11 13 12 13 13 12
3 1 0 2 3 1 1 4 4 5 4 5 6 6 5 4 3 4 5 5 1 0 3 4 4 3 4 3 3 4 4 3 3 4 5 5 5 6 6 4 2 1 0 0 0 1 3 4 5 5 4 4 2 0 2 4 6 6 3 6 9 8 8 7 3 2 6 9 10 11 11 10 9 11 10 8 8 5 6 8 8 8 7 10 13 13 12
4 2 1 1 3 3 4 4 7 7 6 6 6 5 8 9 9 9 10 6 3 1 3 4 4 5 3 4 4 3 3 3 4 2 2 4 4 3 3 4 3 1 2 1 0 0 2 3 3 3 4 4 3 1 1 8 5 4 5 3 4 8 11 12 12 10 6 6 8 9 10 12 12 9 7 8 8 9 9 6 5 7 8 3 7 10 13
9 7 5 9 10 9 10 8 4 6 6 6 6 5 6 6 8 8 10 10 8 6 4 4 4 4 4 4 3 2 4 3 4 4 4 4 4 3 4 3 3 3 3 2 1 1 1 1 1 1 2 3 3 1 2 3 5 6 5 5 5 6 11 12 9 10 11 11 10 10 10 10 9 8 8 7 8 9 9 9 9 9 8 4 3 6 8
8 8 9 9 4 4 4 4 4 7 8 8 7 6 4 7 9 11 11 11 12 11 10 9 8 7 7 6 4 5 5 5 5 4 5 6 5 5 4 3 3 2 1 1 1 1 1 1 0 0 1 2 2 2 3 3 4 5 6 6 6 7 7 7 6 6 7 8 8 9 10 8 8 8 8 8 8 8 7 7 8 8 5 4 3 2 3
9 8 6 6 4 2 2 5 10 10 9 6 5 7 9 8 7 7 6 6 4 6 10 11 10 10 6 4 3 4 3 4 5 6 5 5 6 6 3 2 2 2 2 2 2 2 3 3 2 1 2 1 1 2 3 4 5 6 6 6 6 6 6 6 6 6 6 6 7 7 7 8 8 8 7 7 7 7 7 7 8 6 6 5 3 2 2
4 5 6 6 5 7 8 7 6 6 7 8 9 7 6 6 7 5 5 4 4 6 5 5 7 9 9 9 9 9 8 6 5 5 5 4 6 5 5 2 1 0 0 1 3 3 3 3 4 3 3 2 1 2 3 4 4 4 6 7 8 7 6 7 6 7 7 6 6 8 8 8 7 8 8 8 8 8 8 8 8 8 6 5 5 6 8
4 5 6 5 6 6 6 4 4 4 4 5 6 7 8 6 5 5 5 5 5 4 4 5 6 8 9 8 8 9 9 8 7 7 6 5 4 5 6 2 3 4 5 6 5 4 4 4 4 4 3 2 2 2 4 4 4 4 4 4 5 9 13 13 10 9 8 8 8 7 6 7 8 8 9 8 7 7 7 7 7 7 7 7 7 7 7
5 6 6 5 5 5 4 2 3 2 2 2 4 6 5 5 5 5 5 5 4 4 4 5 6 7 8 8 8 8 8 9 9 8 7 7 6 5 5 5 5 5 5 5 5 5 5 5 5 4 3 3 2 3 4 3 4 4 5 5 5 5 8 12 7 7 7 8 10 9 9 8 8 8 8 9 9 9 8 8 8 8 8 8 8 8 6
4 4 4 2 3 4 3 1 2 1 0 1 1 1 2 2 2 4 3 3 3 3 3 4 4 5 6 7 8 8 8 7 7 6 7 8 7 7 6 5 6 5 5 5 6 5 6 6 6 3 4 5 4 3 3 5 5 5 5 5 5 6 7 8 8 7 7 7 7 7 7 8 9 9 9 9 9 8 8 8 8 8 8 8 7 6 8
5 3 2 1 2 3 2 1 1 1 2 1 1 1 2 3 3 4 4 4 2 1 3 4 4 5 5 6 7 7 8 8 7 8 8 7 7 7 6 7 7 8 7 9 7 4 4 5 4 4 5 4 4 3 2 4 5 5 5 5 5 6 7 6 8 7 7 8 7 9 9 8 9 8 8 8 8 8 8 8 8 8 7 7 7 6 9
4 3 2 2 2 2 2 2 1 1 1 3 3 3 3 3 4 4 5 4 3 3 3 2 3 4 4 5 6 7 7 7 7 7 7 7 3 1 1 2 3 3 2 1 2 3 8 10 5 6 6 6 5 4 4 5 5 5 5 5 6 6 7 7 7 7 7 7 7 7 7 8 7 7 8 8 8 8 8 8 8 8 8 8 6 6 7
4 4 4 4 4 3 3 2 2 1 2 3 3 3 4 4 4 4 5 5 4 3 3 3 3 4 4 5 6 7 8 9 9 8 8 4 2 1 1 1 2 2 2 6 8 8 8 8 12 10 8 7 6 5 5 5 5 5 5 5 5 5 6 7 7 7 6 7 7 7 7 8 8 7 7 7 7 7 8 8 8 8 8 7 7 7 6
4 3 3 3 3 3 4 4 3 3 3 3 4 4 5 4 4 4 4 5 6 6 6 5 5 6 6 6 6 6 6 6 7 8 9 7 5 4 4 4 3 2 3 7 9 10 10 11 15 17 11 7 7 6 6 8 4 4 5 5 4 5 5 5 5 6 6 7 7 7 8 8 7 7 7 8 8 8 8 7 7 7 7 7 7 7 7
3 3 3 3 2 3 3 3 2 3 3 4 4 3 4 5 5 5 5 6 6 7 6 6 6 5 5 5 5 6 7 7 7 8 9 9 7 6 5 4 6 5 7 10 5 5 6 5 9 10 6 7 7 8 7 11 7 5 6 5 5 5 5 6 6 6 7 7 7 7 8 8 8 8 7 7 7 8 8 8 7 7 7 8 8 8 8
5 4 4 4 4 4 3 3 3 3 3 4 4 4 4 5 5 5 6 5 5 6 6 7 6 6 5 6 7 7 7 7 6 7 8 9 8 7 9 9 8 9 10 6 5 5 3 0 3 7 8 7 4 5 5 10 12 7 6 6 6 5 5 6 6 6 7 7 7 8 8 8 8 8 8 8 8 7 7 8 8 7 7 8 8 8 9
3 3 3 3 4 4 4 4 4 3 3 3 4 5 6 5 5 5 5 6 6 4 5 5 6 8 8 8 7 8 8 8 7 7 8 8 8 8 9 9 9 9 9 11 7 3 7 15 8 8 10 10 8 8 8 10 10 7 7 6 6 6 6 6 6 6 6 6 8 8 8 8 8 8 8 8 7 8 8 8 8 8 8 8 8 8 8
2 3 4 4 4 4 4 4 4 4 4 4 4 4 4 4 5 5 6 6 6 5 5 5 7 9 9 9 9 9 8 8 7 8 8 7 7 8 9 11 9 6 6 7 8 5 9 9 10 9 7 7 6 7 6 10 7 8 8 8 7 7 7 7 6 7 7 7 7 8 9 9 8 9 8 8 8 8 8 8 8 8 8 8 8 8 8
3 3 3 4 4 4 4 4 4 5 5 5 4 4 5 5 4 5 6 7 8 8 8 8 9 10 9 9 9 8 8 8 8 9 7 8 8 8 9 11 9 8 9 9 6 9 9 9 10 9 9 8 8 14 14 9 6 7 9 9 9 9 8 8 8 8 7 7 8 8 8 8 9 9 9 9 8 8 8 8 8 8 8 8 8 8 8
4 4 4 4 4 4 4 4 5 5 6 5 4 4 5 5 5 6 6 7 8 8 9 8 9 11 11 9 9 9 9 8 9 9 9 8 8 9 10 12 11 7 8 4 3 3 5 6 8 8 11 11 10 16 19 11 7 8 9 9 10 10 10 10 9 9 8 8 8 8 8 8 8 8 9 9 9 9 9 9 9 9 8 8 8 8 8
4 4 4 4 4 4 4 4 5 5 5 6 5 6 6 6 6 7 7 7 8 8 8 9 9 9 9 9 9 9 9 8 8 7 7 9 9 9 9 10 9 10 10 6 4 7 8 8 8 12 19 22 19 19 12 9 9 8 8 8 9 9 10 10 10 9 9 9 9 9 9 9 9 9 9 9 9 9 9 9 9 9 8 8 8 8 9
4 4 4 4 4 4 5 5 5 6 6 6 6 7 7 7 7 7 8 8 8 9 8 8 9 9 8 8 9 10 10 9 8 8 8 9 10 13 7 8 10 8 10 12 8 8 8 9 11 17 17 19 17 19 11 9 8 8 8 9 8 8 9 9 10 10 10 10 10 10 9 9 9 9 9 9 9 9 10 10 10 9 9 8 8 9 9
5 5 4 5 6 7 7 6 6 5 6 6 7 8 8 8 8 8 7 8 8 8 8 8 9 9 9 10 10 11 11 10 9 9 9 10 11 12 10 9 6 7 13 15 9 9 10 14 15 16 17 18 17 14 10 9 8 9 9 9 9 9 9 9 9 9 9 9 9 9 9 9 9 9 9 8 8 9 9 9 8 7 8 8 8 9 9
5 5 5 6 7 7 7 6 5 5 6 6 7 8 8 8 7 7 7 7 8 9 9 8 9 10 9 9 10 10 10 11 10 9 9 9 11 13 15 17 18 19 15 10 9 10 10 10 13 16 17 17 17 10 9 9 9 9 10 10 9 9 9 9 9 9 9 9 9 9 9 9 9 8 8 8 8 8 7 8 8 8 7 7 7 8 8
5 5 7 6 7 8 7 6 5 7 7 9 9 9 9 8 8 7 7 8 9 9 9 8 9 9 9 9 9 9 10 10 12 12 7 8 9 10 10 8 9 14 17 15 17 15 19 17 15 17 18 17 13 9 9 8 8 8 9 9 9 8 8 8 8 8 8 8 8 8 8 8 8 8 8 8 8 8 7 8 8 7 6 7 7 7 8
5 6 7 6 6 6 6 7 7 7 8 8 8 8 9 9 8 8 8 8 8 8 8 8 8 9 8 9 9 9 9 9 10 13 11 9 9 9 9 11 17 18 14 10 11 10 14 16 16 17 19 16 10 9 9 8 8 8 8 8 8 8 8 8 7 7 8 8 9 9 9 9 9 8 8 8 8 7 8 8 8 7 7 7 7 7 7
6 5 6 7 7 7 7 7 7 8 9 8 8 9 9 7 7 8 8 7 8 9 8 8 7 8 8 8 7 8 9 10 10 11 11 12 12 11 11 11 10 13 14 10 10 10 12 15 17 17 14 11 10 9 8 9 8 8 8 9 8 7 8 9 8 10 9 9 9 9 9 9 9 9 9 8 9 8 8 8 8 9 13 10 8 8 8
6 6 7 7 8 8 8 8 9 9 8 9 9 9 8 8 8 9 8 8 7 8 8 8 8 7 7 8 8 8 9 9 10 12 10 10 11 12 14 11 12 11 10 10 10 9 7 7 5 7 10 9 9 8 8 8 8 9 9 8 8 7 7 8 7 7 7 8 8 9 10 9 9 9 9 9 9 9 9 9 9 8 8 8 9 8 8
7 7 8 8 8 9 9 9 8 8 9 9 9 8 8 8 8 8 8 10 8 8 8 8 10 8 7 8 9 9 8 10 9 9 9 10 10 9 11 15 11 10 10 10 9 7 5 6 6 5 3 2 4 6 9 13 11 9 9 8 7 8 7 7 8 8 8 10 9 9 10 9 9 9 9 9 9 9 9 9 9 9 9 8 8 8 8
Wind_Direction
280 276 270 270 275 252 254 265 273 293 291 284 275 246 196 139 137 187 200 190 145 204 186 184 179 173 173 186 179 162 141 122 128 145 154 163 164 162 164 165 154 157 158 168 173 178 165 238 257 239 116 161 183 186 178 175 174 178 178 178 183 185 180 176 176 161 143 137 135 138 136 130 126 126 125 124 123 123 123 122 122 124 124 121 116 106 96
292 293 295 306 313 301 299 289 287 277 269 279 283 292 122 109 127 142 128 137 125 188 204 198 190 166 137 109 106 114 129 142 146 149 157 163 164 164 160 156 144 112 85 81 74 318 285 259 256 217 125 151 177 188 182 176 176 184 173 181 182 180 178 177 158 133 133 133 132 134 132 131 131 129 129 131 129 128 127 127 125 125 118 112 111 115 112
295 298 316 331 323 306 298 294 275 280 303 349 9 71 100 89 55 84 106 108 102 280 204 159 89 91 90 92 116 136 134 140 148 152 154 159 164 169 171 162 158 154 150 27 354 318 298 275 256 238 158 148 175 194 186 176 181 179 177 179 184 179 176 176 150 131 135 137 134 134 133 128 130 132 133 133 131 129 131 132 131 128 120 117 114 114 116
313 307 346 319 331 332 324 345 340 324 327 358 37 83 57 94 104 90 83 77 72 307 38 79 110 118 133 153 146 137 146 153 155 153 160 160 163 171 177 173 154 146 154 181 243 259 266 272 263 251 175 165 153 199 185 178 179 174 176 179 183 181 161 164 151 139 140 140 136 136 135 135 137 136 133 134 136 138 138 137 132 124 120 121 121 121 118
274 279 336 323 351 19 19 351 331 336 59 81 52 66 64 88 113 100 107 165 220 205 111 109 107 143 140 145 167 114 134 162 162 160 165 174 171 176 182 170 168 170 174 184 212 246 253 255 264 259 201 172 177 192 193 180 169 173 178 181 181 170 154 159 156 144 144 141 140 142 145 142 140 141 141 140 142 145 146 141 130 127 130 127 128 128 129
255 289 326 360 51 52 3 300 354 1 81 88 80 58 69 39 56 104 111 110 12 34 51 136 172 154 180 193 208 188 162 159 167 171 169 178 178 178 183 180 179 185 190 197 200 217 228 245 248 253 216 196 186 182 190 177 172 177 177 180 176 167 156 159 157 152 148 145 147 149 148 147 148 148 151 153 150 144 137 134 133 132 132 131 132 135 140
277 314 16 36 39 155 249 340 46 31 38 82 83 75 59 81 89 85 73 55 64 94 109 83 64 232 234 169 166 163 164 157 162 169 176 178 178 183 183 189 185 176 173 202 236 245 239 234 244 243 228 213 188 180 181 179 178 175 178 173 174 166 160 159 156 155 153 150 149 151 152 152 153 154 153 149 149 149 145 145 146 147 146 141 140 139 137
33 36 41 35 239 231 331 344 67 60 44 32 71 35 19 6 64 97 83 70 52 32 29 19 38 60 69 65 37 19 24 165 167 162 185 188 187 188 191 184 192 184 187 191 200 222 232 226 240 226 218 204 183 188 183 178 179 179 176 175 173 167 162 161 162 161 157 155 154 155 155 156 156 157 160 159 154 149 139 138 140 137 134 134 138 139 139
241 207 126 231 288 356 350 10 345 0 327 285 110 95 357 335 347 79 99 72 50 47 20 20 38 70 80 65 20 10 17 320 253 217 187 189 195 193 199 195 194 188 193 204 215 209 223 226 223 219 210 197 191 183 185 187 177 179 177 176 174 171 169 168 165 163 161 158 159 160 160 160 163 163 161 159 153 149 144 150 150 151 148 142 140 141 144
108 99 356 356 23 357 284 263 277 305 279 254 122 101 23 340 335 336 96 82 61 46 19 20 15 78 73 44 0 335 348 37 134 165 201 220 231 204 189 201 218 223 212 204 205 196 212 222 208 188 189 189 193 189 187 183 182 180 179 181 178 174 173 172 168 165 164 162 163 163 165 169 170 169 160 150 154 157 154 153 152 150 142 136 142 148 151
55 35 166 197 167 235 230 301 308 312 319 225 205 72 24 294 340 315 101 93 73 67 56 13 31 70 68 101 260 294 331 6 65 81 54 146 212 223 201 189 196 203 207 208 212 213 224 236 220 186 184 185 187 194 189 186 184 183 186 183 177 176 175 174 170 167 166 168 167 168 172 174 168 164 164 160 153 148 147 143 142 143 143 141 144 145 149
181 138 144 267 197 208 305 303 305 310 309 282 77 55 295 285 322 305 72 81 81 77 85 84 69 92 98 258 232 293 325 321 16 46 29 52 66 140 213 251 244 207 206 202 204 214 222 231 213 183 172 175 191 193 194 188 188 190 189 184 179 175 172 171 168 166 169 171 172 172 174 167 163 154 144 146 154 149 144 140 142 147 147 148 146 150 154
197 154 221 58 322 296 277 300 306 321 317 59 73 143 232 272 316 336 70 78 88 85 59 59 91 289 193 185 143 303 277 275 22 34 44 39 60 74 78 147 204 222 204 207 215 223 234 229 213 195 174 175 191 199 194 193 197 195 186 174 168 170 169 170 170 171 172 175 174 177 170 161 148 144 150 151 147 145 141 140 142 148 151 148 142 146 151
60 134 109 200 221 240 268 294 330 335 64 43 74 233 212 235 339 10 66 93 90 93 90 100 128 177 186 107 170 243 317 56 40 53 61 59 62 75 87 73 78 165 225 213 186 204 212 197 197 189 183 185 191 193 198 205 201 173 156 160 162 165 171 175 174 172 174 175 173 163 151 145 148 148 148 145 144 140 142 148 153 155 153 146 144 147 154
16 32 60 34 31 293 321 318 15 13 88 192 242 305 10 43 41 36 25 42 3 83 75 64 109 110 69 31 162 318 359 11 24 41 42 77 75 60 64 71 80 122 241 234 215 213 214 202 195 190 187 189 189 190 203 205 174 163 162 162 168 174 176 177 174 173 172 169 165 160 157 156 148 148 149 147 148 150 152 156 156 156 153 150 149 151 156
120 74 71 117 204 245 312 47 101 348 83 185 130 76 48 8 70 74 63 35 44 68 103 106 63 69 99 33 349 339 345 340 344 2 1 14 54 57 62 77 88 96 93 72 5 327 289 217 200 196 195 194 192 193 202 178 170 167 171 174 174 178 181 177 172 173 172 169 163 157 154 150 150 149 154 154 154 159 160 157 157 157 162 157 155 158 163
93 98 142 298 280 312 5 73 111 118 91 78 73 81 85 81 12 7 78 45 39 59 79 66 53 42 49 119 346 341 317 353 355 345 344 339 13 76 78 60 76 87 94 62 1 347 332 248 203 197 193 196 198 206 200 167 175 179 181 180 178 183 178 174 172 170 165 165 162 157 157 156 155 157 156 158 158 165 161 163 166 165 169 168 169 171 165
81 62 31 138 41 31 33 36 47 58 58 58 62 59 58 30 30 33 75 60 60 48 53 94 19 21 254 124 83 46 339 350 290 282 283 287 283 333 103 96 88 88 75 62 39 3 331 335 251 200 199 200 202 210 180 178 186 184 173 172 179 179 172 168 168 162 163 163 158 159 158 164 162 163 162 163 162 163 166 168 172 174 176 178 171 158 157
69 14 341 47 5 19 34 36 39 57 59 63 63 63 58 53 44 42 39 67 73 85 73 88 116 325 316 329 24 240 274 274 256 269 276 261 223 219 156 144 115 84 78 65 41 5 334 333 335 268 211 197 172 108 100 34 331 198 177 178 175 166 167 165 163 164 163 163 160 161 162 160 163 163 163 162 162 166 170 175 181 183 176 153 139 151 167
101 185 220 185 135 93 55 54 39 26 44 53 57 66 68 59 46 46 37 35 44 56 67 135 143 250 286 287 305 295 269 262 279 290 286 308 343 320 274 132 111 100 86 78 58 5 337 332 347 351 286 225 193 156 124 142 148 240 269 202 172 172 168 164 164 166 165 159 160 163 169 166 164 165 168 170 170 175 179 179 177 178 163 160 166 177 179
306 345 324 277 47 36 19 19 36 41 81 80 58 55 55 52 46 27 27 38 37 52 129 143 143 332 307 152 268 297 295 293 277 255 248 241 277 284 273 138 105 96 86 63 39 9 346 336 3 12 11 24 98 81 87 141 160 176 197 216 178 160 156 157 158 162 162 165 165 160 161 167 156 158 170 175 173 178 195 183 179 176 173 178 182 164 158
3 212 214 293 48 338 347 3 16 36 38 84 80 68 59 53 48 30 29 12 15 40 50 7 327 1 314 317 339 315 294 296 306 313 313 278 241 231 249 210 89 76 67 64 36 6 339 338 353 6 11 35 139 166 184 186 178 184 188 180 158 158 156 161 159 160 162 160 158 157 156 150 131 75 30 58 112 176 183 180 152 112 159 171 162 164 173
215 241 259 189 138 153 172 223 30 41 33 84 89 86 77 61 63 64 54 27 13 9 2 27 53 303 255 277 276 295 299 296 291 298 313 313 302 296 292 46 53 61 58 47 35 8 342 341 344 353 1 345 44 106 153 168 164 167 164 159 161 159 163 164 163 161 156 150 150 144 134 136 132 123 114 50 38 38 46 133 125 129 132 129 135 134 176
125 185 313 349 88 117 94 71 68 65 55 68 68 54 60 61 58 49 46 50 53 3 356 358 27 24 275 265 227 258 271 263 272 293 295 312 323 328 345 20 42 47 37 40 31 349 333 349 344 345 350 345 1 88 132 155 161 163 166 162 163 169 164 160 167 164 155 148 139 128 125 127 132 139 156 154 82 35 40 53 114 135 141 145 156 177 194
179 210 27 73 109 77 44 107 78 66 62 76 65 40 31 20 24 46 31 3 335 88 9 340 343 14 38 338 284 275 278 273 252 256 281 289 296 304 319 349 19 47 59 120 313 4 358 354 349 343 348 341 353 346 94 61 74 96 115 156 157 150 127 107 70 101 129 143 145 142 141 140 144 174 173 152 150 125 42 55 84 104 140 161 172 187 176
41 359 155 91 59 19 351 22 19 28 47 69 68 40 35 28 27 23 5 341 331 322 349 325 345 348 24 18 334 307 311 306 323 333 284 279 269 252 254 245 248 197 170 169 176 53 14 358 350 342 353 340 351 355 107 132 148 128 83 75 121 136 140 153 159 156 149 148 145 152 151 162 172 166 154 160 155 152 143 130 81 53 54 138 198 200 180
46 25 45 38 22 10 31 49 13 347 10 29 61 60 45 40 39 42 28 21 4 13 29 30 351 339 354 10 1 1 355 341 331 336 331 325 315 275 250 241 202 201 208 187 196 266 285 36 19 356 341 330 341 15 85 118 145 149 137 121 94 128 139 152 161 161 161 164 162 158 156 162 157 152 153 154 154 157 162 161 156 162 178 165 152 192 195
51 51 69 89 65 31 5 14 48 43 36 26 18 28 27 51 45 43 37 25 18 8 359 3 356 353 5 348 15 1 4 0 341 326 332 315 305 301 256 198 169 167 186 221 251 275 292 308 79 355 307 317 352 44 84 106 126 139 148 150 139 142 148 146 143 150 153 158 155 152 157 158 152 146 146 149 155 162 161 159 159 162 167 171 162 159 191
85 81 75 91 119 131 68 31 28 29 21 16 31 31 28 34 38 51 51 49 33 17 6 351 352 345 336 310 350 354 350 352 340 327 311 302 311 320 286 188 167 148 170 217 249 245 235 253 260 234 275 297 338 70 95 112 128 140 139 138 134 137 146 148 147 145 145 143 148 149 144 145 145 144 150 155 157 160 162 161 164 168 167 145 121 102 95
96 96 90 79 62 54 47 34 26 14 16 11 18 15 27 40 34 16 22 32 41 35 351 338 348 356 351 343 333 330 328 323 315 308 301 301 307 316 302 272 111 37 39 269 237 238 248 244 256 233 237 257 234 113 110 120 135 146 155 155 153 153 152 154 145 143 142 141 142 136 144 148 150 151 155 161 167 166 162 165 169 167 158 164 185 187 182
92 88 91 94 84 73 80 67 38 23 18 15 11 9 5 23 36 18 2 351 11 22 5 359 348 345 348 346 335 328 318 311 312 310 306 281 273 285 291 253 178 217 217 218 218 219 227 241 241 252 230 220 209 136 123 132 140 143 146 153 156 160 159 159 160 159 155 148 147 152 153 152 156 158 162 164 166 166 169 170 165 161 165 178 191 191 187
82 63 62 61 84 92 76 72 68 45 23 25 27 10 346 351 1 354 341 353 337 329 345 3 359 340 326 328 331 332 326 316 310 310 308 309 305 282 265 260 243 232 218 215 210 212 223 236 243 232 202 214 219 155 130 144 148 158 169 158 149 149 160 156 151 156 154 159 160 161 163 162 166 170 166 172 174 175 174 175 180 180 177 181 190 192 171
90 47 33 16 30 45 50 20 76 4 297 34 358 291 294 303 319 318 310 297 307 327 348 339 329 322 323 322 326 326 326 321 313 307 308 304 300 302 294 270 253 241 227 212 208 210 214 223 233 221 201 206 213 199 169 161 175 176 176 165 160 159 160 166 161 152 156 156 164 168 167 172 171 174 179 176 176 176 179 182 179 181 184 190 187 182 176
119 144 179 191 141 117 97 332 306 334 309 298 293 313 304 302 306 296 295 290 284 291 324 311 315 318 321 322 320 321 325 333 331 322 312 305 302 308 325 333 338 341 343 348 334 304 263 233 212 200 205 210 211 200 175 168 177 185 179 174 163 160 168 168 162 164 164 172 174 175 176 175 178 183 180 178 178 179 181 181 182 182 184 186 188 183 179
86 77 89 70 64 72 98 117 113 310 318 340 325 323 297 289 298 301 298 303 295 276 268 283 306 318 316 320 321 323 322 317 310 305 300 301 314 325 13 31 22 36 29 164 248 276 295 298 257 202 200 199 203 194 191 184 182 178 187 177 171 172 172 167 171 175 173 172 171 174 179 183 183 184 181 179 182 182 184 187 186 183 183 183 185 175 178
50 36 22 26 18 30 31 17 357 359 350 319 297 288 295 297 308 320 320 309 297 306 323 328 325 327 326 322 319 315 313 310 310 308 304 282 224 220 234 232 187 162 191 251 232 208 203 226 252 223 190 200 198 201 194 191 186 178 172 175 180 178 175 176 180 177 174 167 175 182 180 184 182 182 183 186 185 187 189 190 190 187 186 186 180 177 180
11 27 24 24 6 14 2 349 331 340 338 328 321 323 320 319 314 305 315 328 329 330 330 334 335 329 315 306 294 291 288 292 298 303 303 279 229 232 248 272 267 239 216 234 248 218 216 213 206 201 194 187 191 197 201 195 180 165 159 175 180 179 178 181 181 180 180 179 180 180 183 185 183 184 184 186 190 194 194 195 192 188 187 186 184 182 179
346 19 6 349 330 338 325 303 311 352 350 342 331 323 318 317 321 321 323 319 318 316 319 319 309 300 297 299 300 298 296 296 297 303 304 293 268 266 256 237 257 211 219 235 242 224 229 259 234 208 186 181 189 186 193 202 176 155 164 168 178 184 186 187 185 187 182 184 183 184 185 187 187 189 189 191 193 193 197 196 191 188 189 189 188 188 188
343 337 349 340 351 351 338 330 339 345 332 324 313 310 307 308 307 313 313 303 301 304 308 306 310 309 307 306 301 299 294 291 292 296 299 294 285 259 262 251 240 226 232 263 309 285 263 321 68 35 19 13 359 328 268 216 192 164 173 164 176 184 193 193 193 192 191 184 183 189 190 191 191 192 192 193 194 196 198 194 190 189 188 191 190 192 192
344 348 327 339 341 328 337 332 326 314 305 295 302 300 298 304 303 301 297 296 291 293 292 297 305 305 301 298 295 292 290 291 291 289 287 288 290 283 280 280 267 258 253 261 264 276 89 93 116 180 199 211 203 195 208 217 200 164 176 172 177 181 192 200 196 196 195 193 192 189 192 194 195 196 196 193 194 197 199 197 194 193 192 195 197 195 191
326 327 337 347 333 334 333 324 311 301 293 294 285 279 282 285 296 302 295 292 295 295 290 286 287 288 286 285 283 283 286 289 289 285 282 281 282 277 275 275 278 271 242 235 234 186 147 173 193 200 203 200 204 215 225 224 200 170 180 180 178 182 187 192 201 201 199 198 200 199 199 196 195 196 197 196 199 199 199 200 199 199 197 197 198 196 192
311 333 343 333 316 309 304 299 300 304 298 283 278 279 284 285 281 276 281 285 288 287 284 278 270 271 277 280 283 284 286 284 283 281 276 263 264 272 277 273 274 279 268 258 212 171 185 191 196 196 197 191 188 208 208 213 206 194 188 184 181 179 182 192 197 205 203 205 206 207 207 204 201 200 198 196 199 200 200 201 203 203 202 199 198 199 195
315 320 308 299 293 291 288 290 291 286 286 289 284 280 276 277 275 273 273 273 273 277 279 277 276 280 282 284 283 282 277 277 276 277 275 264 250 244 252 269 277 278 271 259 181 193 206 210 201 203 191 187 196 202 207 203 196 205 202 193 182 182 181 185 192 199 201 205 207 208 209 210 209 207 203 201 201 200 200 202 205 206 200 196 197 198 201
289 292 280 275 277 275 280 288 292 292 291 284 281 278 279 275 271 270 270 270 268 268 269 274 275 274 271 273 279 279 277 275 275 270 274 280 280 259 241 252 264 259 250 239 206 201 207 210 216 204 202 200 197 199 201 203 203 206 211 206 193 187 187 185 186 191 198 204 208 209 208 207 209 210 207 204 202 202 203 206 208 206 199 191 194 196 199
284 273 269 264 268 281 288 284 278 275 273 277 287 288 282 276 274 269 267 266 266 267 265 265 268 269 271 269 270 271 271 266 264 265 273 274 279 277 262 236 249 251 251 241 226 217 217 217 209 203 201 199 197 198 198 203 203 203 205 207 204 196 194 192 190 190 195 198 204 208 207 205 206 207 209 209 204 202 202 205 208 203 195 191 190 195 196
275 269 269 286 291 286 276 268 264 267 277 284 287 283 277 272 268 269 265 265 265 265 263 266 269 271 272 273 273 273 274 270 261 253 247 248 256 269 273 261 240 242 244 243 231 229 229 224 212 205 199 197 196 201 202 201 202 201 206 208 203 194 194 198 196 194 192 195 200 204 204 203 201 205 207 209 208 205 206 203 205 200 197 194 191 194 194
254 266 272 272 275 276 277 276 273 277 281 285 283 281 280 277 273 268 266 265 268 272 274 272 271 271 269 268 270 276 279 281 273 253 249 253 254 259 264 265 264 261 251 239 234 234 228 223 212 203 199 195 192 196 200 197 202 205 205 208 205 197 193 192 192 192 192 197 197 198 196 195 199 201 201 204 203 206 203 200 202 203 197 194 189 186 191
254 260 266 268 270 274 278 282 288 286 281 273 271 275 278 278 277 273 274 275 276 276 275 273 273 273 273 268 264 259 260 267 280 277 255 252 252 252 254 254 248 249 254 250 244 235 229 217 208 200 201 196 197 201 205 206 207 205 207 207 205 198 193 188 188 189 190 192 190 193 196 199 198 199 195 199 202 200 200 202 206 200 196 196 196 188 184
254 255 263 268 271 273 273 275 278 279 274 272 273 272 272 274 277 279 279 277 278 279 277 276 275 274 271 268 266 266 262 253 249 269 275 265 260 259 258 256 256 253 250 246 243 243 232 217 205 199 202 198 199 200 204 208 209 207 207 205 205 201 196 191 182 182 186 193 194 194 196 197 197 196 196 198 199 199 199 205 205 200 199 197 200 200 195
264 265 270 269 265 266 264 267 266 263 267 271 266 266 268 274 279 275 271 273 274 279 277 274 271 271 269 267 265 265 265 264 262 260 262 264 261 259 257 256 252 248 246 241 241 239 234 221 208 205 200 204 203 201 203 207 209 207 206 208 206 203 194 188 186 189 194 196 194 195 195 197 197 198 197 198 200 201 204 205 205 206 200 197 200 203 204
265 261 260 260 258 257 254 247 251 260 264 263 261 263 266 264 260 266 270 274 274 278 277 276 270 267 270 268 267 268 268 270 269 270 267 260 259 256 254 249 247 247 245 244 240 232 217 209 212 219 216 211 204 199 200 207 208 209 204 201 199 191 184 186 189 198 200 199 197 197 197 197 196 196 198 200 200 204 205 206 207 205 203 203 202 202 203
259 260 262 262 262 261 260 262 260 255 253 256 257 261 261 261 261 267 271 273 269 267 270 279 284 277 263 270 273 273 273 273 273 273 269 268 261 256 254 256 252 241 238 239 239 213 171 139 119 105 121 267 285 255 223 210 209 207 202 196 193 191 190 188 197 202 207 204 199 198 196 194 192 196 199 199 199 200 202 204 206 205 204 204 202 200 199